[[{"header":{"parameterUnit":"m.s-1","parameterCategory":1,"la1":30.2991,"la2":30.254,"lo1":-89.0895,"lo2":-89.0444,"dy":0.0017,"dx":0.0017,"nx":28,"ny":28,"refTime":"2023-11-12T03:00:00:Z","depth":0,"parameterNumber":2,"parameterNumberName":"U-component_of_WINDS"},"data":[0,0,0,0,0,0,0,0,0,0,0,0,0,0,0,0,0,0,0,0,0,0,0,0,0,0,0,0,0,0,0,0,0,0,0,0,0,0,0,0,0,0,0,0,0,0,0,0,0,0,0,0,0,0,0,0,0,0,-1.5858,-1.5858,0,-1.5862,-1.5862,-1.5862,-1.5825,-1.5824,-1.5823,-1.5823,-1.5826,-1.5827,-1.5828,0,0,0,0,0,0,0,0,0,0,0,0,0,-1.5821,-1.5822,-1.5858,-1.5858,-1.5858,-1.5862,-1.5862,-1.5862,-1.5826,-1.5824,-1.5823,-1.5822,-1.5825,-1.5827,-1.5828,0,0,0,0,0,0,0,0,0,0,0,0,0,-1.5832,-1.5822,-1.5858,-1.5841,-1.5839,-1.5862,-1.5862,-1.5862,-1.5826,-1.5824,-1.5823,-1.5821,-1.5825,-1.5826,-1.5828,-1.5867,0,0,-1.5832,-1.5833,0,0,0,0,0,0,0,0,-1.5831,-1.5833,-1.5843,-1.5842,-1.584,-1.5842,-1.5849,-1.5863,-1.5826,-1.5831,-1.5822,-1.5821,-1.5832,-1.5833,-1.5837,-1.5867,-1.5867,-1.5833,-1.5834,-1.5834,-1.5835,0,0,0,0,0,0,0,-1.5831,-1.5833,-1.586,-1.5844,-1.5842,-1.5833,-1.5833,-1.5852,-1.584,-1.583,-1.5828,-1.5829,-1.5831,-1.5835,-1.5837,-1.5867,-1.5833,-1.5834,-1.5835,-1.5835,-1.5931,-1.5932,0,0,0,0,0,0,-1.5832,-1.5833,-1.5859,-1.586,-1.5832,-1.5835,-1.5835,-1.5843,-1.584,-1.5838,-1.583,-1.5827,-1.5834,-1.5835,-1.5837,-1.5883,-1.5834,-1.5836,-1.5836,-1.5929,-1.5931,-1.5933,0,0,0,0,0,0,-1.5832,-1.5835,-1.5859,-1.5845,-1.5848,-1.5837,-1.5846,-1.5844,-1.5848,-1.5839,-1.5837,-1.5837,-1.5832,-1.5834,-1.586,-1.5883,-1.5836,-1.5838,-1.5927,-1.593,-1.5932,-1.5976,0,0,0,0,0,0,-1.5831,-1.5835,-1.585,-1.5846,-1.5849,-1.5883,-1.5848,-1.5845,-1.5851,-1.5847,-1.5845,-1.5843,-1.5831,-1.5858,-1.5861,-1.5884,-1.5839,-1.5925,-1.5928,-1.5931,-1.5972,-1.598,-1.5986,0,0,0,0,0,-1.583,-1.5862,-1.5851,-1.5854,-1.5867,-1.5884,-1.5886,-1.5872,-1.5853,-1.5868,-1.5862,-1.5843,-1.5879,-1.5861,-1.5864,-1.5888,-1.5924,-1.5927,-1.5931,-1.5969,-1.5978,-1.5986,0,0,0,0,0,0,-1.5868,-1.5861,-1.5849,-1.5881,-1.5883,-1.5878,-1.5896,-1.5881,-1.5889,-1.5885,-1.5867,-1.5867,-1.5896,-1.5894,-1.5873,-1.5926,-1.5898,-1.5903,-1.5926,-1.5934,-1.5941,-1.5941,-1.584,0,0,0,0,0,-1.588,-1.5895,-1.5888,-1.5917,-1.5919,-1.5907,-1.5914,-1.5903,-1.5905,-1.5906,-1.5902,-1.5905,-1.5917,-1.5925,-1.5936,-1.5972,-1.5971,-1.5989,-1.5996,-1.6002,-1.6006,-1.6026,-1.6034,-1.5945,-1.5945,-1.5945,0,0,-1.5906,-1.5904,-1.5914,-1.5925,-1.5925,-1.5941,-1.5909,-1.5926,-1.5938,-1.5909,-1.5933,-1.593,-1.5932,-1.5963,-1.5977,-1.5963,-1.6031,-1.6006,-1.6011,-1.6012,-1.6031,-1.6039,-1.6047,-1.5947,-1.5947,-1.5947,0,0,-1.5961,-1.596,-1.5985,-1.5986,-1.5988,-1.598,-1.5986,-1.5983,-1.5981,-1.6005,-1.5983,-1.5997,-1.6017,-1.602,-1.6024,-1.608,-1.6064,-1.6084,-1.6119,-1.6138,-1.6146,-1.6152,-1.6173,-1.6181,-1.6088,-1.6088,-1.6088,0,-1.5992,-1.6015,-1.5999,-1.6019,-1.6024,-1.5999,-1.6024,-1.6026,-1.6031,-1.6036,-1.602,-1.6046,-1.6045,-1.6077,-1.6091,-1.6094,-1.6101,-1.6085,-1.6146,-1.6152,-1.6157,-1.6177,-1.6185,-1.6091,-1.609,-1.609,-1.609,0,-1.6054,-1.6071,-1.609,-1.6097,-1.6104,-1.6126,-1.6114,-1.6123,-1.6112,-1.6106,-1.6131,-1.6129,-1.6139,-1.6145,-1.6134,-1.6176,-1.6167,-1.6149,-1.6121,-1.6169,-1.6187,-1.6195,-1.6094,-1.6094,-1.6093,-1.6092,0,0,-1.6134,-1.6131,-1.6139,-1.6142,-1.6142,-1.6154,-1.6175,-1.6185,-1.6195,-1.6199,-1.6217,-1.6235,-1.6218,-1.6223,-1.6211,-1.6228,-1.6274,-1.6207,-1.6207,-1.6221,-1.6321,-1.6336,-1.6345,-1.6263,-1.6264,-1.6265,-1.6322,0,-1.6189,-1.6225,-1.6211,-1.6249,-1.6264,-1.624,-1.6258,-1.6261,-1.6256,-1.6268,-1.6262,-1.6276,-1.6252,-1.6255,-1.627,-1.6265,-1.6294,-1.6261,-1.628,-1.6281,-1.6281,-1.6355,-1.6371,-1.6424,-1.6329,-1.633,-1.6331,0,-1.6257,-1.6265,-1.6304,-1.6302,-1.6308,-1.6325,-1.6334,-1.6345,-1.6347,-1.6343,-1.6348,-1.6333,-1.6354,-1.6325,-1.6354,-1.6332,-1.6338,-1.6337,-1.6339,-1.6341,-1.631,-1.636,-1.6441,-1.645,-1.6342,-1.6341,-1.634,0,-1.6313,-1.6333,-1.6359,-1.6362,-1.636,-1.6373,-1.6373,-1.6373,-1.6381,-1.6388,-1.6393,-1.6402,-1.6408,-1.6415,-1.6403,-1.6383,-1.6434,-1.6404,-1.6432,-1.6432,-1.6445,-1.6444,-1.6529,-1.6447,-1.6447,-1.6447,-1.6446,0,-1.6376,-1.6401,-1.6384,-1.6401,-1.6428,-1.6412,-1.644,-1.6437,-1.6438,-1.6454,-1.6433,-1.6448,-1.643,-1.6444,-1.6434,-1.646,-1.6462,-1.646,-1.6457,-1.6462,-1.6463,-1.6467,-1.6464,-1.6449,-1.6448,-1.6448,-1.6447,0,-1.6443,-1.6433,-1.6461,-1.6457,-1.6456,-1.6477,-1.6474,-1.6489,-1.6482,-1.6502,-1.6506,-1.6496,-1.651,-1.6499,-1.6513,-1.6507,-1.6542,-1.6533,-1.6541,-1.654,-1.6568,-1.6566,-1.6659,-1.6671,-1.6581,-1.6581,-1.6582,0,-1.6485,-1.6504,-1.6502,-1.6511,-1.6513,-1.6527,-1.6535,-1.652,-1.6528,-1.6532,-1.6547,-1.656,-1.657,-1.6594,-1.6588,-1.6599,-1.6592,-1.6624,-1.6593,-1.6598,-1.6594,-1.6594,-1.6596,-1.663,-1.6631,-1.6632,-1.6633,0,-1.656,-1.6554,-1.6566,-1.6576,-1.6586,-1.6593,-1.6598,-1.6607,-1.6591,-1.6602,-1.6617,-1.6625,-1.6639,-1.6653,-1.6662,-1.6662,-1.6645,-1.6642,-1.665,-1.6656,-1.666,-1.666,-1.656,-1.6641,-1.664,-1.6639,-1.6639,-1.6639,-1.6617,-1.6633,-1.6635,-1.6649,-1.6651,-1.6657,-1.6671,-1.6667,-1.6679,-1.669,-1.668,-1.6699,-1.67,-1.6711,-1.6713,-1.6727,-1.6714,-1.6724,-1.6726,-1.673,-1.6734,-1.6657,-1.6728,-1.6728,-1.6728,-1.6728,-1.6727,0,-1.6692,-1.6692,-1.6705,-1.6714,-1.6725,-1.6708,-1.6713,-1.6724,-1.674,-1.6743,-1.6753,-1.6771,-1.6784,-1.6779,-1.6791,-1.6803,-1.6796,-1.6807,-1.6807,-1.6807,-1.6745,-1.6738,-1.6813,-1.6813,-1.6813,-1.6813,-1.6813,-1.6813,-1.6732,-1.6759,-1.6754,-1.6782,-1.6781,-1.68,-1.6804,-1.681,-1.6812,-1.6833,-1.6844,-1.6841,-1.6841,-1.6852,-1.6864,-1.6862,-1.6868,-1.6882,-1.6877,-1.682,-1.6811,-1.6803,-1.6797,-1.6883,-1.6883,-1.6939,-1.6939,-1.6939]},{"header":{"parameterUnit":"m.s-1","parameterCategory":1,"la1":30.2991,"la2":30.254,"lo1":-89.0895,"lo2":-89.0444,"dy":0.0017,"dx":0.0017,"nx":28,"ny":28,"refTime":"2023-11-12T03:00:00:Z","depth":0,"parameterNumber":3,"parameterNumberName":"V-component_of_WINDS"},"data":[0,0,0,0,0,0,0,0,0,0,0,0,0,0,0,0,0,0,0,0,0,0,0,0,0,0,0,0,0,0,0,0,0,0,0,0,0,0,0,0,0,0,0,0,0,0,0,0,0,0,0,0,0,0,0,0,0,0,-2.8961,-2.8961,0,-2.9017,-2.9018,-2.9019,-2.9025,-2.9025,-2.9024,-2.9024,-2.9078,-2.9079,-2.9081,0,0,0,0,0,0,0,0,0,0,0,0,0,-2.8854,-2.8856,-2.8961,-2.8961,-2.8962,-2.9017,-2.9018,-2.9019,-2.9025,-2.9025,-2.9024,-2.9023,-2.9077,-2.9079,-2.9082,0,0,0,0,0,0,0,0,0,0,0,0,0,-2.8904,-2.8856,-2.896,-2.8972,-2.8974,-2.9017,-2.9018,-2.9019,-2.9025,-2.9025,-2.9024,-2.9023,-2.9076,-2.9079,-2.9082,-2.9117,0,0,-2.9091,-2.9092,0,0,0,0,0,0,0,0,-2.8901,-2.8908,-2.897,-2.8971,-2.8973,-2.9013,-2.9,-2.9052,-2.9026,-2.9006,-2.9023,-2.9023,-2.9057,-2.9061,-2.9074,-2.9119,-2.9122,-2.9091,-2.9093,-2.9094,-2.9095,0,0,0,0,0,0,0,-2.8898,-2.8906,-2.8983,-2.897,-2.8973,-2.8973,-2.8979,-2.901,-2.9035,-2.9007,-2.9008,-2.9015,-2.9057,-2.9071,-2.9075,-2.9122,-2.9091,-2.9094,-2.9096,-2.9097,-2.92,-2.9201,0,0,0,0,0,0,-2.8893,-2.8903,-2.8981,-2.8985,-2.8935,-2.8976,-2.8983,-2.9001,-2.9035,-2.9039,-2.9015,-2.9015,-2.9066,-2.9071,-2.9077,-2.9121,-2.9094,-2.9097,-2.9099,-2.9199,-2.9201,-2.9202,0,0,0,0,0,0,-2.889,-2.89,-2.8979,-2.8944,-2.8954,-2.8978,-2.8999,-2.9003,-2.9016,-2.9041,-2.9045,-2.9025,-2.9066,-2.9073,-2.9107,-2.9123,-2.9098,-2.9101,-2.9198,-2.92,-2.9201,-2.9208,0,0,0,0,0,0,-2.8887,-2.8899,-2.8913,-2.8944,-2.8956,-2.901,-2.9,-2.9005,-2.9022,-2.9022,-2.9051,-2.9055,-2.9065,-2.9103,-2.911,-2.9126,-2.9103,-2.9197,-2.9199,-2.9201,-2.9207,-2.921,-2.9213,0,0,0,0,0,-2.8884,-2.8912,-2.8914,-2.8923,-2.8975,-2.9011,-2.9017,-2.903,-2.9023,-2.9037,-2.9053,-2.9054,-2.912,-2.9106,-2.9115,-2.9132,-2.9196,-2.9198,-2.92,-2.9206,-2.9209,-2.9212,0,0,0,0,0,0,-2.888,-2.8916,-2.8919,-2.8958,-2.8982,-2.9012,-2.903,-2.9033,-2.9058,-2.9057,-2.9071,-2.9077,-2.9111,-2.9125,-2.9109,-2.9168,-2.9157,-2.9161,-2.9158,-2.9162,-2.9164,-2.9161,-2.9106,0,0,0,0,0,-2.8885,-2.8912,-2.8941,-2.8973,-2.8985,-2.9005,-2.9021,-2.903,-2.9054,-2.9063,-2.9081,-2.9104,-2.9129,-2.9146,-2.9171,-2.9208,-2.9215,-2.9224,-2.9227,-2.9229,-2.9233,-2.9254,-2.9259,-2.9209,-2.9209,-2.9209,0,0,-2.8893,-2.8916,-2.8932,-2.8973,-2.8992,-2.9019,-2.9013,-2.9042,-2.9062,-2.9067,-2.9102,-2.9116,-2.9141,-2.9178,-2.9195,-2.919,-2.9248,-2.9232,-2.9234,-2.9236,-2.9257,-2.9262,-2.9266,-2.921,-2.921,-2.921,0,0,-2.8923,-2.8942,-2.8972,-2.8992,-2.9021,-2.9035,-2.9041,-2.9071,-2.9081,-2.9117,-2.9121,-2.9144,-2.9188,-2.9207,-2.9222,-2.9259,-2.926,-2.9266,-2.9281,-2.9302,-2.9306,-2.9309,-2.9324,-2.9328,-2.9269,-2.9269,-2.9269,0,-2.8929,-2.8972,-2.8986,-2.9016,-2.9034,-2.904,-2.907,-2.9088,-2.9123,-2.9135,-2.9129,-2.9185,-2.9202,-2.9244,-2.9253,-2.9265,-2.9273,-2.9263,-2.9304,-2.9308,-2.9312,-2.9325,-2.933,-2.927,-2.927,-2.927,-2.927,0,-2.8979,-2.9008,-2.9028,-2.9064,-2.9084,-2.9113,-2.9131,-2.9149,-2.9156,-2.917,-2.9205,-2.9227,-2.9257,-2.9267,-2.9272,-2.9309,-2.9305,-2.9302,-2.9291,-2.9317,-2.933,-2.9335,-2.9271,-2.927,-2.927,-2.927,0,0,-2.9008,-2.9053,-2.906,-2.9077,-2.911,-2.9133,-2.9161,-2.9192,-2.9208,-2.9232,-2.9257,-2.9294,-2.9291,-2.9308,-2.9316,-2.9334,-2.9363,-2.9328,-2.9329,-2.9335,-2.9405,-2.9409,-2.9415,-2.9364,-2.9365,-2.9366,-2.9404,0,-2.9043,-2.9097,-2.9111,-2.9157,-2.9185,-2.9191,-2.9217,-2.9239,-2.9252,-2.9277,-2.9291,-2.9318,-2.9311,-2.9322,-2.934,-2.9356,-2.9377,-2.9353,-2.9387,-2.9388,-2.9382,-2.9421,-2.9425,-2.946,-2.9409,-2.941,-2.941,0,-2.9091,-2.9118,-2.9167,-2.9197,-2.9209,-2.9232,-2.9262,-2.9285,-2.931,-2.9319,-2.9338,-2.9344,-2.9374,-2.9361,-2.9402,-2.9385,-2.94,-2.9409,-2.9411,-2.9415,-2.9401,-2.9428,-2.9471,-2.9477,-2.9418,-2.9417,-2.9417,0,-2.9109,-2.9157,-2.9193,-2.9207,-2.9243,-2.9259,-2.9275,-2.9299,-2.9317,-2.9342,-2.9354,-2.9381,-2.9397,-2.9417,-2.943,-2.942,-2.9471,-2.9459,-2.9478,-2.9478,-2.949,-2.9489,-2.9537,-2.9497,-2.9497,-2.9497,-2.9496,0,-2.9147,-2.9177,-2.9203,-2.9225,-2.9258,-2.9273,-2.9306,-2.9321,-2.9343,-2.9367,-2.9373,-2.9396,-2.9411,-2.9436,-2.9446,-2.9479,-2.9485,-2.9492,-2.9495,-2.9493,-2.9492,-2.9503,-2.9501,-2.9498,-2.9498,-2.9497,-2.9497,0,-2.9174,-2.9192,-2.9232,-2.9263,-2.9272,-2.9295,-2.9321,-2.9342,-2.9356,-2.9387,-2.9395,-2.9416,-2.9445,-2.946,-2.9495,-2.9502,-2.954,-2.954,-2.9532,-2.9533,-2.9552,-2.9551,-2.961,-2.9619,-2.9572,-2.9572,-2.9573,0,-2.9197,-2.9221,-2.9255,-2.9273,-2.9289,-2.9317,-2.9336,-2.9351,-2.937,-2.9401,-2.9419,-2.9448,-2.9473,-2.9519,-2.9537,-2.9564,-2.9566,-2.9585,-2.957,-2.9567,-2.9567,-2.9567,-2.9569,-2.9588,-2.9588,-2.9588,-2.9589,0,-2.9238,-2.9246,-2.9274,-2.9305,-2.9328,-2.9352,-2.9376,-2.939,-2.9409,-2.943,-2.9461,-2.948,-2.9517,-2.9547,-2.9575,-2.959,-2.9592,-2.9593,-2.9599,-2.9598,-2.9593,-2.9597,-2.954,-2.9592,-2.9592,-2.9591,-2.9591,-2.9591,-2.9265,-2.9286,-2.9314,-2.9345,-2.9365,-2.9388,-2.941,-2.9427,-2.9453,-2.9486,-2.9493,-2.9526,-2.955,-2.9589,-2.9604,-2.9629,-2.9625,-2.9634,-2.9636,-2.9638,-2.964,-2.9588,-2.9634,-2.9634,-2.9634,-2.9634,-2.9634,0,-2.9306,-2.9325,-2.9353,-2.9388,-2.9412,-2.9414,-2.9441,-2.946,-2.949,-2.9513,-2.9537,-2.9573,-2.9601,-2.9621,-2.965,-2.9666,-2.9668,-2.9674,-2.9673,-2.9677,-2.9641,-2.9634,-2.9672,-2.9672,-2.9672,-2.9672,-2.9672,-2.9672,-2.9331,-2.9369,-2.938,-2.9427,-2.9445,-2.9479,-2.9494,-2.9514,-2.9533,-2.9573,-2.9598,-2.9611,-2.9633,-2.9663,-2.969,-2.9695,-2.9705,-2.9711,-2.9716,-2.9683,-2.9679,-2.9675,-2.9668,-2.9713,-2.9713,-2.9749,-2.9749,-2.975]}]]